OBJECT B, 56744

Orbit data source: Space-Track

You're viewing an Uncataloged Satellite

Recently launched and/or uncataloged satellites may have evolving metadata. Metadata may include but not limited to: Owner, Maufacturer, Bus, Motor, and Mission.

OBJECT B, 56744 is a satellite owned by KASI (KR) in SSO that was launched on Thu, 25 May 2023 UTC via an NURI launch vehicle from the Naro Space Center, South Korea (NSC). Unknown objects in Earth's orbit typically refer to objects detected orbiting the Earth but have not yet been identified or cataloged. These objects could be anything from previously untracked satellites, spent rocket stages, debris from satellite collisions, or even natural meteoroids temporarily captured by Earth's gravity.

Loading next visibility...
Identifier
56744, 2023-072B
Orbit
SSO
Country
Flag of KRKR / SKOR
Related business
Flag of KRKorea Astronomy and Space Science Institute (KR)
Manufacturer
KASI
Mission
Operational Civil Ast/Sci
Bus & Motor
CUBESAT 6U, Unknown motor
Mass
10 kg wet, 10 kg dry
Launch date (UTC)
2023-05-25 (3 years ago)
Launch vehicle
NURI
Launch site
Naro Space Center, South Korea (NSC)
Object type
Unknown
Shape & HBR
Box + 2 Pan, 0.3 m
Radar Cross Section
0.054 m², Medium (>0.1 m² and < 1m²)

Expand to show TLE details & history
Last TLE update: 12 hours ago

TLE from 12 hours ago
0 OBJECT B
1 56744U 23072B   26171.52263008  .00017644  00000-0  40919-3 0  9991
2 56744  97.5251  17.6333 0004085 323.4809  36.6159 15.42460623170625
Epoch: 2026-06-20T12:32Z
TLE epoch observation values (Epoch: 2026-06-20T12:32:35.238Z)
Latitude
-0.00004°
Longitude
-79.24956°
Altitude
439.732 km
Speed
7.649 km/s
True Right ascension
01h 10m 31s
True Declination
0° 00' 00"
Sunlit
Object was in daylight at epoch
Visualization orbit readout
Latitude
Unknown
Longitude
Unknown
Altitude
Unknown
Speed
Unknown
Apparent Right ascension
Unknown
Apparent Declination
Unknown
Sunlit
N/A
Visualization observer readout
Local Sidereal Time
10:59:08
Azimuth
Unknown
Elevation
Unknown
Doppler factor
Unknown
Orbital elements
Apogee altitude
438.574 km
Perigee altitude
433.007 km
Semi-major axis
6,813.928 km
Eccentricity
0.00041
Inclination
97.5251°
RAAN
17.6333°
Arg. of periapsis
323.4809°
True anomaly
36.64383°
Mean anomaly
36.6159°
Eccentric anomaly
36.62986°
Mean motion
3.85875 °/min
Orbital period
93.29 mins
BSTAR
0.00040919
Loading maneuver chart data...
Computing Atmospheric mass density...
Loading historical data...
Loading historical data...
Loading historical data...
Loading historical data...
Loading historical data...
Loading historical data...
Loading historical data...

Documentation

Showing up to 5 results
|